This is the latest recevied weather packets stored in our database for station/object KF5WCW-1. If no packets are shown the sender has not sent any weather packets the latest 10 day(s).
| Time | Temp. | Humidity | Pressure | Rain* | Wind** | Luminosity | Snow |
|---|---|---|---|---|---|---|---|
| 1777452083 | 0.56° C | 74% | 0 hPa | 0 mm | - | - | - |
| 1777451783 | 0.56° C | 69% | 0 hPa | 0 mm | - | - | - |
| 1777451483 | 1.11° C | 68% | 0 hPa | 0 mm | - | - | - |
| 1777451183 | 1.67° C | 66% | 0 hPa | 0 mm | - | - | - |
| 1777450883 | 1.67° C | 67% | 0 hPa | 0 mm | - | - | - |
| 1777450583 | 2.22° C | 68% | 0 hPa | 0 mm | - | - | - |
| 1777450283 | 2.22° C | 68% | 0 hPa | 0 mm | - | - | - |
| 1777449983 | 2.22° C | 70% | 0 hPa | 0 mm | - | - | - |
| 1777449683 | 2.78° C | 70% | 0 hPa | 0 mm | - | - | - |
| 1777449383 | 2.78° C | 71% | 0 hPa | 0 mm | - | - | - |
| 1777449083 | 3.33° C | 67% | 0 hPa | 0 mm | - | - | - |
| 1777448783 | 3.33° C | 69% | 0 hPa | 0 mm | - | - | - |
| 1777448483 | 3.33° C | 68% | 0 hPa | 0 mm | - | - | - |
| 1777448183 | 3.89° C | 67% | 0 hPa | 0 mm | - | - | - |
| 1777447883 | 3.89° C | 70% | 0 hPa | 0 mm | - | - | - |
| 1777447583 | 3.89° C | 67% | 0 hPa | 0 mm | - | - | - |
| 1777447283 | 3.89° C | 67% | 0 hPa | 0 mm | - | - | - |
| 1777446983 | 4.44° C | 67% | 0 hPa | 0 mm | - | - | - |
| 1777446683 | 4.44° C | 65% | 0 hPa | 0 mm | - | - | - |
| 1777446383 | 4.44° C | 64% | 0 hPa | 0 mm | - | - | - |
| 1777446083 | 5° C | 64% | 0 hPa | 0 mm | - | - | - |
| 1777445783 | 5° C | 62% | 0 hPa | 0 mm | - | - | - |
| 1777445484 | 5° C | 59% | 0 hPa | 0 mm | - | - | - |
| 1777445184 | 5° C | 57% | 0 hPa | 0 mm | - | - | - |
| 1777444884 | 5° C | 58% | 0 hPa | 0 mm | - | - | - |
* Rain latest hour (hover to see other rain measurements)
** Current wind speed in m/s (hover to see current wind gust speed)